sat.trackr.live / text

‹ back to catalog

STARLINK-32715

NORAD 62569 · 2025-006R

PAYLOAD ACTIVE UNKNOWN

§ Identity

Operator
Country
US
Launch date
2025-01-10
Launch site
AFETR
Launch vehicle
Mass (kg)
RCS (m²)

Purposes: comms

External: N2YO · Heavens-Above · Gunter

§ Orbital elements

Epoch: 2026-05-25T05:15:13.847328Z

Period
94.27 min
Inclination
43.0002°
Eccentricity
0.0001488
Mean motion
15.27597519 rev/d
Perigee alt
482.0 km
Apogee alt
484.0 km
Semi-major
6,861.1 km
B*
8.5692e-4
RAAN
220.6529°
Arg perigee
274.9401°
Mean anomaly
85.1280°
Rev number
7,656

§ Raw data

STARLINK-327151 62569U 25006R   26145.21891027  .00023406  00000+0  85692-3 0  99962 62569  43.0002 220.6529 0001488 274.9401  85.1280 15.27597519 76562

JSON: /api/v1/satellites/62569 · /tle

For live sub-satellite position, see the globe view (requires WebGL).

§ Visibility from observer

Set your observer location to see the next 7 days of passes ≥ 10°. The values pass through the URL so the page stays shareable.

No JS? Fill the form by hand. The geolocation button needs JavaScript.